#timestamp,LO_Frequency,Hit,StdDev 
1593230415.9,286046998.9,N
1593230435.7,286047000.7,N
1593230455.5,286046998.7,N
1593230475.4,286046999.4,N
1593230495.2,286046996.9,Y
1593230515.1,286046999.0,P
1593230516.0,286046999.0,P
1593230535.8,286046998.8,P
1593230555.6,286046998.3,Y
1593230575.5,286046999.8,P
1593230595.3,286047001.1,N
1593230615.2,286047000.4,N
1593230635.9,286046999.9,N
1593230655.7,286046999.9,N
1593230675.6,286047000.3,N
1593230695.4,286047000.4,N
1593230715.3,286047000.8,N
1593230735.1,286047001.0,N
1593230736.0,286047001.0,N
1593230755.8,286047000.8,N
1593230775.7,286047002.4,Y
1593230795.5,286047000.3,P
1593230815.4,286047000.1,N
1593230835.2,286047000.7,P
1593230855.0,286047000.8,Y
1593230855.9,286047000.8,P
1593230875.8,286046998.1,P
1593230895.6,286047001.1,N
1593230915.4,286047000.0,N
1593230935.3,286047004.1,Y
1593230955.1,286047006.2,P
1593230975.9,286047006.3,N
1593230995.7,286047003.5,N
1593231015.5,286047001.4,N
1593231035.4,286046999.9,N
1593231055.2,286047002.1,N
1593231075.1,286047003.5,N
1593231076.0,286047003.5,N
1593231095.8,286047004.0,N
1593231115.6,286047001.6,N
1593231135.5,286047003.7,N
1593231155.3,286047003.1,N
1593231175.1,286047001.4,N
1593231195.9,286046999.8,N
1593231215.7,286047001.9,N
1593231235.6,286047002.0,N
1593231255.4,286047002.6,N
1593231275.3,286047000.0,N
1593231295.1,286047000.8,N
1593231296.0,286047000.8,N
1593231315.8,286047002.6,N
1593231335.7,286047000.7,N
1593231355.5,286047000.2,N
1593231375.3,286047000.0,N
1593231395.2,286047000.3,N
1593231445.1,286047002.7,E
1593231455.3,286047000.6,N
1593231475.2,286047000.4,P
1593231495.9,286047002.4,P
1593231515.7,286046999.8,N
1593231535.6,286046998.5,N
1593231555.4,286046998.3,N
1593231575.2,286046998.2,N
1593231595.1,286047002.3,N
1593231596.0,286047002.3,N
1593231615.8,286047002.6,N
1593231635.7,286047002.8,N
1593231655.5,286047002.5,N
1593231675.4,286047001.6,N
1593231695.2,286046999.8,N
1593231715.0,286047002.2,N
1593231715.9,286047002.2,N
1593231735.8,286047002.4,N
1593231755.6,286047000.3,N
1593231775.5,286047000.7,N
1593231795.3,286047000.9,N
1593231815.1,286047000.3,N
1593231835.9,286046998.1,N
1593231855.7,286047000.7,N
1593231875.6,286047000.8,N
1593231895.4,286047001.1,N
1593231915.2,286046998.9,N
1593231935.1,286047001.2,N
1593231936.0,286047001.2,N
1593231955.8,286046998.2,N
1593231975.6,286047001.2,N
1593231995.5,286047000.7,N
1593232015.3,286046999.3,N
1593232035.2,286046999.3,N
1593232055.9,286046998.6,N
1593232075.7,286046999.0,N
1593232095.6,286046998.4,N
1593232115.4,286046996.9,N
1593232135.2,286046999.4,N
1593232155.1,286046996.6,N
1593232156.0,286046996.6,N
1593232175.8,286046996.6,N
1593232195.7,286046997.1,N
1593232215.5,286046999.6,N
1593232235.3,286046997.7,N
1593232255.2,286046997.7,N
1593232275.0,286046996.7,N
1593232275.9,286046996.7,N
1593232295.8,286046996.7,N
1593232315.6,286046997.6,N
1593232335.4,286046996.8,N
1593232355.3,286046997.7,N
1593232375.1,286046997.3,N
1593232395.8,286046997.8,N
1593232415.7,286046995.4,N
1593232435.5,286046997.9,N
1593232455.4,286046996.9,N
1593232475.2,286046997.8,N
1593232495.0,286046998.0,N
1593232495.9,286046998.0,N
1593232515.8,286046994.9,Y
1593232535.6,286046999.1,P
1593232555.5,286046999.6,N
1593232575.3,286046999.6,N
1593232595.1,286046999.1,N
1593232615.9,286046999.5,N
1593232635.7,286046999.6,N
1593232655.6,286046997.1,Y
1593232675.4,286046998.4,P
1593232695.2,286046999.3,N
1593232715.1,286046998.7,P
1593232716.0,286046998.7,Y
1593232735.8,286047000.7,P
1593232755.6,286047000.1,N
1593232775.5,286047000.0,N
1593232795.3,286047001.1,N
1593232815.2,286047000.5,N
1593232835.9,286047000.3,N
1593232855.7,286047000.7,N
1593232875.6,286046999.9,N
1593232895.4,286047002.3,Y
1593232915.3,286047000.5,P
1593232935.1,286047000.9,P
1593232936.0,286047000.9,P
1593232955.8,286047001.1,Y
1593232975.7,286046999.4,P
1593232995.5,286046998.4,N
1593233015.4,286047000.9,N
1593233035.2,286046996.6,Y
1593233055.0,286046999.2,P
1593233055.9,286046999.2,N
1593233075.8,286046999.0,P
1593233095.6,286046999.5,N
1593233115.4,286046998.3,Y
1593233135.3,286046998.7,P
1593233155.1,286046998.5,P
1593233175.9,286047000.4,N
1593233195.7,286046998.5,N
1593233215.5,286047001.1,N
1593233235.4,286046998.8,N
1593233255.2,286046998.3,N
1593233275.1,286046998.5,N
1593233276.0,286046998.5,N
1593233295.8,286046998.8,N
1593233315.6,286046999.2,N
1593233335.5,286046998.8,N
1593233355.3,286047001.2,N
1593233375.1,286046998.2,N
1593233395.9,286047000.9,N
1593233415.7,286046998.6,N
1593233435.6,286046998.7,N
1593233455.4,286046996.6,Y
1593233475.2,286047000.8,P
1593233495.1,286047000.6,N
1593233496.0,286047000.6,N
1593233515.8,286047001.6,N
1593233535.7,286047001.1,N
1593233555.5,286047001.1,N
1593233575.3,286047000.3,N
1593233595.2,286046999.9,N
1593233615.0,286046998.4,N
1593233615.9,286046998.4,N
1593233635.8,286046996.6,Y
1593233655.6,286046998.3,P
1593233675.4,286046999.0,N
1593233695.3,286046998.2,N
1593233715.1,286046998.9,N
1593233735.9,286047001.1,N
1593233755.7,286046998.2,N
1593233775.5,286047000.6,N
1593233795.4,286046998.1,N
1593233815.2,286046998.5,N
1593233835.1,286046998.3,N
1593233836.0,286046998.3,N
1593233855.8,286046998.2,N
1593233875.6,286046998.1,N
1593233895.5,286046998.3,N
1593233915.3,286047001.1,N
1593233935.1,286046998.6,N
1593233955.9,286046998.1,N
1593233975.7,286046998.6,N
1593233995.6,286046998.8,N
